Location: ????????
(56.1167°N, 38.6333°E)
Time: 21:33:56
(UTC+00:00)

Cosmos 2344 - Pass Details

Date: 18 November 2025
Orbit: 1197 x 3045 km, 63.3° (Epoch: 14 December)

Event Time Altitude Azimuth Distance (km) Brightness Sun altitude
Rises 16:10:54 0° 309° (NW) 4,160 7.1 -24.3°
Reaches altitude 10° 16:13:26 10° 307° (NW) 3,260 6.4 -24.7°
Maximum altitude 16:21:03 69° 226° (SW) 1,558 4.0 -25.8°
Enters shadow 16:28:27 20° 149° (SSE) 3,353 5.4 -26.8°
